FW6471 Weather Reports


Display with metric or nautical units.
time (UTC)temp
F
wind
direction
speed
MPH
gust
MPH
rain 1hr
in
rain 24hr
in
rain mn
in
humidity
%
barometer
mb
20260502185106 82 80 2.0 6.0 0.00 0.00 0.00 78 1012.6
20260502184105 82 184 2.0 3.0 0.00 0.00 0.00 77 1012.2
20260502183105 82 302 1.0 3.0 0.00 0.00 0.00 78 1012.3
20260502182604 82 236 2.0 12.0 0.00 0.00 0.00 76 1012.5
20260502182105 83 307 5.0 9.0 0.00 0.00 0.00 73 1012.4
20260502181605 84 298 4.0 12.0 0.00 0.00 0.00 72 1012.5
20260502181105 84 310 5.0 12.0 0.00 0.00 0.00 71 1012.3
20260502180111 84 239 3.0 10.0 0.00 0.00 0.00 72 1012.4
20260502170110 86 352 4.0 10.0 0.00 0.00 0.00 70 1012.6
20260502164105 86 298 5.0 9.0 0.00 0.00 0.00 68 1012.3
20260502163605 86 248 3.0 5.0 0.00 0.00 0.00 68 1012.2
20260502163104 86 308 5.0 12.0 0.00 0.00 0.00 68 1012.3
20260502161604 86 216 3.0 8.0 0.00 0.00 0.00 71 1012.4
20260502161105 85 173 2.0 7.0 0.00 0.00 0.00 73 1012.4
20260502160605 85 178 3.0 8.0 0.00 0.00 0.00 72 1012.5
20260502160111 85 206 2.0 8.0 0.00 0.00 0.00 69 1012.5
20260502152104 84 172 3.0 8.0 0.00 0.00 0.00 68 1012.7
20260502151605 84 234 3.0 12.0 0.00 0.00 0.00 68 1012.7
20260502151104 84 169 4.0 12.0 0.00 0.00 0.00 68 1012.8
20260502150605 84 190 5.0 12.0 0.00 0.00 0.00 70 1012.5
20260502140110 80 245 1.0 3.0 0.00 0.00 0.00 80 1012.9
20260502130605 75 186 4.0 9.0 0.00 0.00 0.00 86 1012.2
20260502130110 74 204 3.0 6.0 0.00 0.00 0.00 88 1012.0
20260502123605 71 151 1.0 5.0 0.00 0.00 0.00 95 1011.9
20260502122605 70 158 3.0 8.0 0.00 0.00 0.00 95 1011.7
20260502122105 70 162 2.0 3.0 0.00 0.00 0.00 95 1011.7
20260502121604 70 161 2.0 3.0 0.00 0.00 0.00 95 1011.7
20260502121105 69 150 1.0 3.0 0.00 0.00 0.00 95 1011.5
20260502120604 69 136 2.0 3.0 0.00 0.00 0.00 95 1011.5
20260502120110 69 157 2.0 3.0 0.00 0.00 0.00 95 1011.5
20260502115605 68 156 1.0 5.0 0.00 0.00 0.00 95 1011.5
20260502115104 68 136 2.0 3.0 0.00 0.00 0.00 95 1011.5
20260502114604 67 165 1.0 3.0 0.00 0.00 0.00 95 1011.4
20260502113605 66 313 0.0 1.0 0.00 0.00 0.00 94 1011.2
20260502113104 66 313 0.0 0.0 0.00 0.00 0.00 95 1011.3
20260502112604 66 313 0.0 0.0 0.00 0.00 0.00 94 1011.3
20260502112104 66 313 0.0 0.0 0.00 0.00 0.00 94 1011.3
20260502111604 66 313 0.0 0.0 0.00 0.00 0.00 94 1011.3
20260502111105 66 313 0.0 0.0 0.00 0.00 0.00 94 1011.4
20260502110604 66 313 0.0 0.0 0.00 0.00 0.00 94 1011.4
20260502110110 66 313 0.0 0.0 0.00 0.00 0.00 94 1011.3
20260502105605 65 313 0.0 0.0 0.00 0.00 0.00 94 1011.3
20260502105104 65 313 0.0 0.0 0.00 0.00 0.00 94 1011.2
20260502104605 65 313 0.0 0.0 0.00 0.00 0.00 94 1011.2
20260502104105 66 313 0.0 0.0 0.00 0.00 0.00 94 1011.2
20260502103604 66 313 0.0 0.0 0.00 0.00 0.00 94 1011.1
20260502103104 66 313 0.0 0.0 0.00 0.00 0.00 94 1011.1
20260502102605 66 313 0.0 0.0 0.00 0.00 0.00 94 1011.1
20260502102105 66 313 0.0 0.0 0.00 0.00 0.00 94 1011.2
20260502101604 66 313 0.0 0.0 0.00 0.00 0.00 94 1011.1
20260502101106 66 313 0.0 0.0 0.00 0.00 0.00 94 1011.2
20260502091104 66 313 0.0 0.0 0.00 0.00 0.00 94 1011.4
20260502090604 66 313 0.0 1.0 0.00 0.00 0.00 94 1011.5
20260502090110 65 313 0.0 0.0 0.00 0.00 0.00 93 1011.5
20260502080110 66 313 0.0 0.0 0.00 0.00 0.00 93 1012.0
20260502071104 67 313 0.0 0.0 0.00 0.00 0.00 93 1012.0
20260502070604 67 313 0.0 0.0 0.00 0.00 0.00 92 1012.1
20260502070110 67 313 0.0 0.0 0.00 0.00 0.00 93 1012.1
20260502065603 67 313 0.0 0.0 0.00 0.00 0.00 92 1012.1
20260502065104 67 313 0.0 0.0 0.00 0.00 0.00 92 1012.2
20260502064604 67 313 0.0 0.0 0.00 0.00 0.00 92 1012.3
20260502064103 67 313 0.0 0.0 0.00 0.00 0.00 92 1012.3
20260502063604 67 313 0.0 0.0 0.00 0.00 0.00 92 1012.4
20260502062604 67 313 0.0 0.0 0.00 0.00 0.00 92 1012.4
20260502062103 67 313 0.0 0.0 0.00 0.00 0.00 92 1012.5
20260502061604 68 313 0.0 0.0 0.00 0.00 0.00 92 1012.6
20260502061104 68 313 0.0 0.0 0.00 0.00 0.00 92 1012.6
20260502060604 68 313 0.0 0.0 0.00 0.00 0.00 92 1012.6
20260502060110 68 313 0.0 0.0 0.00 0.00 0.00 92 1012.7
20260502055604 68 313 0.0 0.0 0.00 0.00 0.00 92 1012.6
20260502055104 68 313 0.0 0.0 0.00 0.00 0.00 92 1012.7
20260502054604 68 313 0.0 0.0 0.00 0.00 0.00 92 1012.8
20260502054104 68 313 0.0 1.0 0.00 0.00 0.00 92 1012.8
20260502052604 69 313 0.0 0.0 0.00 0.00 0.00 92 1012.9
20260502052103 69 313 0.0 0.0 0.00 0.00 0.00 91 1013.0
20260502051604 69 313 0.0 0.0 0.00 0.00 0.00 91 1013.1
20260502051104 69 313 0.0 0.0 0.00 0.00 0.00 91 1013.0
20260502050603 69 313 0.0 12.0 0.00 0.00 0.00 91 1013.0
20260502050109 69 313 0.0 0.0 0.00 0.00 0.00 91 1013.0
20260502045604 69 313 0.0 0.0 0.00 0.00 0.00 91 1013.0
20260502045103 69 313 0.0 0.0 0.00 0.00 0.00 91 1013.2
20260502044604 69 313 0.0 0.0 0.00 0.00 0.00 91 1013.2
20260502044106 69 313 0.0 0.0 0.00 0.00 0.00 91 1013.1
20260502043606 70 313 0.0 0.0 0.00 0.00 0.00 91 1013.0
20260502043105 70 313 0.0 0.0 0.00 0.00 0.00 91 1013.0
20260502041606 70 313 0.0 0.0 0.00 0.00 0.00 90 1012.9
20260502041105 70 313 0.0 0.0 0.00 0.00 0.00 90 1012.9
20260502040606 70 313 0.0 0.0 0.00 0.00 0.00 90 1013.0
20260502040112 70 313 0.0 0.0 0.00 0.00 0.00 90 1012.9
20260502035606 70 313 0.0 0.0 0.00 0.00 0.00 90 1013.0
20260502035105 71 313 0.0 0.0 0.00 0.00 0.00 90 1013.0
20260502034606 71 313 0.0 0.0 0.00 0.00 0.00 90 1012.9
20260502033605 71 313 0.0 0.0 0.00 0.00 0.00 89 1013.0
20260502033105 71 313 0.0 0.0 0.00 0.00 0.00 89 1013.1
20260502032606 71 313 0.0 0.0 0.00 0.00 0.00 89 1013.1
20260502032106 71 313 0.0 0.0 0.00 0.00 0.00 89 1013.1
20260502031605 72 313 0.0 0.0 0.00 0.00 0.00 88 1013.0
20260502031106 72 313 0.0 0.0 0.00 0.00 0.00 88 1013.0
20260502030606 72 313 0.0 0.0 0.00 0.00 0.00 88 1012.9
20260502025606 72 313 0.0 0.0 0.00 0.00 0.00 87 1012.9
20260502025106 73 313 0.0 0.0 0.00 0.00 0.00 87 1012.8
20260502024606 73 313 0.0 0.0 0.00 0.00 0.00 87 1012.8
20260502023606 73 313 0.0 0.0 0.00 0.00 0.00 86 1012.7
20260502023106 74 313 0.0 0.0 0.00 0.00 0.00 86 1012.7
20260502022106 74 313 0.0 1.0 0.00 0.00 0.00 85 1012.7
20260502021605 74 313 0.0 2.0 0.00 0.00 0.00 85 1012.7
20260502021106 74 313 0.0 1.0 0.00 0.00 0.00 85 1012.7
20260502020606 75 313 1.0 2.0 0.00 0.00 0.00 85 1012.7
20260502020112 75 334 0.0 3.0 0.00 0.00 0.00 84 1012.7
20260502015105 75 331 0.0 2.0 0.00 0.00 0.00 83 1012.8
20260502014606 75 318 1.0 3.0 0.00 0.00 0.00 83 1012.8
20260502013605 76 334 2.0 3.0 0.00 0.00 0.00 82 1012.7
20260502013106 76 329 1.0 3.0 0.00 0.00 0.00 82 1012.7
20260502011605 76 330 2.0 3.0 0.00 0.00 0.00 80 1012.6
20260502010605 77 323 1.0 3.0 0.00 0.00 0.00 79 1012.6
20260502010111 77 329 1.0 3.0 0.00 0.00 0.00 78 1012.6
20260502005606 77 324 2.0 3.0 0.00 0.00 0.00 78 1012.6
20260502005105 78 308 2.0 6.0 0.00 0.00 0.00 77 1012.4
20260502004106 78 329 2.0 5.0 0.00 0.00 0.00 75 1012.4
20260502003606 78 324 3.0 6.0 0.00 0.00 0.00 74 1012.3
20260502002605 79 305 2.0 5.0 0.00 0.00 0.00 72 1012.2
20260502002105 79 328 3.0 8.0 0.00 0.00 0.00 72 1012.0
20260502001606 80 315 2.0 6.0 0.00 0.00 0.00 71 1011.9
20260502001105 80 302 4.0 6.0 0.00 0.00 0.00 70 1011.9
20260502000606 81 308 4.0 8.0 0.00 0.00 0.00 68 1011.9
20260502000111 81 320 3.0 8.0 0.00 0.00 0.00 66 1011.8
20260501235605 82 325 3.0 5.0 0.00 0.00 0.00 62 1011.7
20260501235105 82 308 1.0 3.0 0.00 0.00 0.00 61 1011.6
20260501234605 82 320 1.0 3.0 0.00 0.00 0.00 59 1011.6
20260501234106 83 291 1.0 3.0 0.00 0.00 0.00 58 1011.5
20260501233606 83 310 3.0 8.0 0.00 0.00 0.00 58 1011.5
20260501232606 83 308 2.0 3.0 0.00 0.00 0.00 58 1011.3
20260501232105 84 301 1.0 3.0 0.00 0.00 0.00 58 1011.3
20260501231605 84 310 3.0 7.0 0.00 0.00 0.00 57 1011.3
20260501231106 84 310 3.0 6.0 0.00 0.00 0.00 57 1011.2
20260501230605 84 319 2.0 8.0 0.00 0.00 0.00 57 1011.1
20260501230111 85 316 2.0 5.0 0.00 0.00 0.00 56 1011.0
20260501225106 86 323 3.0 8.0 0.00 0.00 0.00 55 1011.0
20260501224105 86 277 1.0 7.0 0.00 0.00 0.00 54 1010.9
20260501223105 86 314 1.0 5.0 0.00 0.00 0.00 54 1010.8
20260501222605 87 301 2.0 6.0 0.00 0.00 0.00 54 1010.9
20260501222105 87 313 2.0 3.0 0.00 0.00 0.00 54 1010.8
20260501221605 86 287 1.0 7.0 0.00 0.00 0.00 53 1010.6
20260501220605 87 281 1.0 3.0 0.00 0.00 0.00 52 1010.7
20260501220111 87 304 2.0 5.0 0.00 0.00 0.00 53 1010.6
20260501215605 87 343 2.0 5.0 0.00 0.00 0.00 53 1010.6
20260501215105 87 303 3.0 7.0 0.00 0.00 0.00 52 1010.5
20260501214605 87 311 2.0 7.0 0.00 0.00 0.00 52 1010.5
20260501214105 87 310 3.0 9.0 0.00 0.00 0.00 52 1010.5
20260501213605 88 303 2.0 9.0 0.00 0.00 0.00 51 1010.6
20260501212605 88 315 2.0 7.0 0.00 0.00 0.00 52 1010.6
20260501212105 88 316 3.0 8.0 0.00 0.00 0.00 51 1010.7
20260501211605 89 330 1.0 6.0 0.00 0.00 0.00 49 1010.7
20260501211105 89 217 2.0 6.0 0.00 0.00 0.00 51 1010.7
20260501210111 88 282 2.0 3.0 0.00 0.00 0.00 49 1010.8
20260501205605 88 323 3.0 5.0 0.00 0.00 0.00 49 1010.8
20260501205105 88 312 2.0 5.0 0.00 0.00 0.00 50 1010.5
20260501204604 88 322 3.0 5.0 0.00 0.00 0.00 50 1010.6
20260501204105 88 242 2.0 5.0 0.00 0.00 0.00 49 1010.7
20260501203606 89 317 2.0 5.0 0.00 0.00 0.00 49 1010.7
20260501203105 89 325 1.0 10.0 0.00 0.00 0.00 47 1010.8
20260501202105 90 298 3.0 6.0 0.00 0.00 0.00 47 1010.9
20260501201606 90 265 1.0 5.0 0.00 0.00 0.00 48 1010.8
20260501201105 90 273 2.0 6.0 0.00 0.00 0.00 48 1010.8
20260501200605 90 317 1.0 5.0 0.00 0.00 0.00 47 1011.0
20260501200111 90 306 2.0 8.0 0.00 0.00 0.00 47 1011.1
20260501195605 90 301 2.0 8.0 0.00 0.00 0.00 47 1011.1
20260501195105 91 322 2.0 6.0 0.00 0.00 0.00 45 1011.1
20260501194605 91 68 3.0 10.0 0.00 0.00 0.00 45 1011.3
20260501194105 91 62 3.0 6.0 0.00 0.00 0.00 47 1011.5
20260501193605 91 288 2.0 7.0 0.00 0.00 0.00 48 1011.5
20260501193105 91 288 2.0 5.0 0.00 0.00 0.00 48 1011.6
20260501192605 90 240 2.0 5.0 0.00 0.00 0.00 50 1011.6
20260501192105 90 304 2.0 3.0 0.00 0.00 0.00 51 1011.8
20260501191105 91 351 2.0 3.0 0.00 0.00 0.00 48 1012.0
20260501190605 90 326 4.0 12.0 0.00 0.00 0.00 50 1012.1
20260501190111 90 305 4.0 9.0 0.00 0.00 0.00 47 1012.3
20260501185605 90 258 5.0 12.0 0.00 0.00 0.00 50 1012.3